Time,TemperatureF,DewpointF,PressureIn,WindDirection,WindDirectionDegrees,WindSpeedMPH,WindSpeedGustMPH,Humidity,HourlyPrecipIn,Conditions,Clouds,dailyrainin,SoftwareType,DateUTC
2013-08-10 00:02:00,48.0,33.0,-100.00,South,191,7.0,11.0,55,0.00,,,0.01,,2013-08-10 06:02:00,
2013-08-10 00:11:00,48.0,33.0,-100.00,South,191,7.0,11.0,55,0.00,,,0.01,,2013-08-10 06:11:00,
2013-08-10 00:22:00,48.0,33.0,-100.00,South,191,7.0,11.0,55,0.00,,,0.01,,2013-08-10 06:22:00,
2013-08-10 00:53:00,49.0,32.0,-100.00,SSW,203,5.0,9.0,52,0.00,,,0.01,,2013-08-10 06:53:00,
2013-08-10 01:02:00,49.0,32.0,-100.00,SSW,203,5.0,9.0,52,0.00,,,0.01,,2013-08-10 07:02:00,
2013-08-10 01:12:00,49.0,32.0,-100.00,SSW,203,5.0,9.0,52,0.00,,,0.01,,2013-08-10 07:12:00,
2013-08-10 01:22:00,49.0,32.0,-100.00,SSW,203,5.0,9.0,52,0.00,,,0.01,,2013-08-10 07:22:00,
2013-08-10 01:52:00,48.0,32.0,-100.00,SSE,161,4.0,10.0,54,0.00,,,0.01,,2013-08-10 07:52:00,
2013-08-10 02:01:00,48.0,32.0,-100.00,SSE,161,4.0,10.0,54,0.00,,,0.01,,2013-08-10 08:01:00,
2013-08-10 02:12:00,48.0,32.0,-100.00,SSE,161,4.0,10.0,54,0.00,,,0.01,,2013-08-10 08:12:00,
2013-08-10 02:22:00,48.0,32.0,-100.00,SSE,161,4.0,10.0,54,0.00,,,0.01,,2013-08-10 08:22:00,
2013-08-10 02:53:00,50.0,32.0,-100.00,SSE,164,9.0,14.0,50,0.00,,,0.01,,2013-08-10 08:53:00,
2013-08-10 03:02:00,50.0,32.0,-100.00,SSE,164,9.0,14.0,50,0.00,,,0.01,,2013-08-10 09:02:00,
2013-08-10 03:12:00,50.0,32.0,-100.00,SSE,164,9.0,14.0,50,0.00,,,0.01,,2013-08-10 09:12:00,
2013-08-10 03:22:00,50.0,32.0,-100.00,SSE,164,9.0,14.0,50,0.00,,,0.01,,2013-08-10 09:22:00,
2013-08-10 03:52:00,48.0,31.0,-100.00,WSW,253,3.0,20.0,52,0.00,,,0.01,,2013-08-10 09:52:00,
2013-08-10 04:02:00,48.0,31.0,-100.00,WSW,253,3.0,20.0,52,0.00,,,0.01,,2013-08-10 10:02:00,
2013-08-10 04:11:00,48.0,31.0,-100.00,WSW,253,3.0,20.0,52,0.00,,,0.01,,2013-08-10 10:11:00,
2013-08-10 04:22:00,48.0,31.0,-100.00,WSW,253,3.0,20.0,52,0.00,,,0.01,,2013-08-10 10:22:00,
2013-08-10 04:53:00,46.0,31.0,-100.00,ESE,119,4.0,11.0,56,0.00,,,0.01,,2013-08-10 10:53:00,
2013-08-10 05:02:00,46.0,31.0,-100.00,ESE,119,4.0,11.0,56,0.00,,,0.01,,2013-08-10 11:02:00,
2013-08-10 05:11:00,46.0,31.0,-100.00,ESE,119,4.0,11.0,56,0.00,,,0.01,,2013-08-10 11:11:00,
2013-08-10 05:22:00,46.0,31.0,-100.00,ESE,119,4.0,11.0,56,0.00,,,0.01,,2013-08-10 11:22:00,
2013-08-10 08:53:00,56.0,33.0,-100.00,SSW,212,6.0,11.0,41,0.00,,,0.01,,2013-08-10 14:53:00,
2013-08-10 09:02:00,56.0,33.0,-100.00,SSW,212,6.0,11.0,41,0.00,,,0.01,,2013-08-10 15:02:00,
2013-08-10 09:11:00,56.0,33.0,-100.00,SSW,212,6.0,11.0,41,0.00,,,0.01,,2013-08-10 15:11:00,
2013-08-10 09:22:00,56.0,33.0,-100.00,SSW,212,6.0,11.0,41,0.00,,,0.01,,2013-08-10 15:22:00,
2013-08-10 09:52:00,58.0,33.0,-100.00,WSW,243,6.0,9.0,39,0.00,,,0.01,,2013-08-10 15:52:00,
2013-08-10 10:01:00,58.0,33.0,-100.00,WSW,243,6.0,9.0,39,0.00,,,0.01,,2013-08-10 16:01:00,
2013-08-10 10:11:00,58.0,33.0,-100.00,WSW,243,6.0,9.0,39,0.00,,,0.01,,2013-08-10 16:11:00,
2013-08-10 10:22:00,58.0,33.0,-100.00,WSW,243,6.0,9.0,39,0.00,,,0.01,,2013-08-10 16:22:00,
2013-08-10 10:53:00,60.0,34.0,-100.00,West,261,9.0,17.0,38,0.00,,,0.01,,2013-08-10 16:53:00,
2013-08-10 11:02:00,60.0,34.0,-100.00,West,261,9.0,17.0,38,0.00,,,0.01,,2013-08-10 17:02:00,
2013-08-10 11:12:00,60.0,34.0,-100.00,West,261,9.0,17.0,38,0.00,,,0.01,,2013-08-10 17:12:00,
2013-08-10 11:22:00,60.0,34.0,-100.00,West,261,9.0,17.0,38,0.00,,,0.01,,2013-08-10 17:22:00,
2013-08-10 11:52:00,62.0,32.0,-100.00,WNW,297,8.0,33.0,32,0.00,,,0.01,,2013-08-10 17:52:00,
2013-08-10 12:01:00,62.0,32.0,-100.00,WNW,297,8.0,33.0,32,0.00,,,0.01,,2013-08-10 18:01:00,
2013-08-10 12:11:00,62.0,32.0,-100.00,WNW,297,8.0,33.0,32,0.00,,,0.01,,2013-08-10 18:11:00,
2013-08-10 12:23:00,62.0,32.0,-100.00,WNW,297,8.0,33.0,32,0.00,,,0.01,,2013-08-10 18:23:00,
2013-08-10 12:52:00,64.0,27.0,-100.00,WNW,297,18.0,42.0,25,0.00,,,0.01,,2013-08-10 18:52:00,
2013-08-10 13:02:00,64.0,27.0,-100.00,WNW,297,18.0,42.0,25,0.00,,,0.01,,2013-08-10 19:02:00,
2013-08-10 13:11:00,64.0,27.0,-100.00,WNW,297,18.0,42.0,25,0.00,,,0.01,,2013-08-10 19:11:00,
2013-08-10 13:22:00,64.0,27.0,-100.00,WNW,297,18.0,42.0,25,0.00,,,0.01,,2013-08-10 19:22:00,
2013-08-10 13:53:00,61.0,29.0,-100.00,WSW,258,8.0,42.0,29,0.00,,,0.01,,2013-08-10 19:53:00,
2013-08-10 14:02:00,61.0,29.0,-100.00,WSW,258,8.0,42.0,29,0.00,,,0.01,,2013-08-10 20:02:00,
2013-08-10 14:11:00,61.0,29.0,-100.00,WSW,258,8.0,42.0,29,0.00,,,0.01,,2013-08-10 20:11:00,
2013-08-10 14:22:00,61.0,29.0,-100.00,WSW,258,8.0,42.0,29,0.00,,,0.01,,2013-08-10 20:22:00,
2013-08-10 14:53:00,64.0,26.0,-100.00,NW,306,9.0,22.0,24,0.00,,,0.01,,2013-08-10 20:53:00,
2013-08-10 15:02:00,64.0,26.0,-100.00,NW,306,9.0,22.0,24,0.00,,,0.01,,2013-08-10 21:02:00,
2013-08-10 15:12:00,64.0,26.0,-100.00,NW,306,9.0,22.0,24,0.00,,,0.01,,2013-08-10 21:12:00,
2013-08-10 15:22:00,64.0,26.0,-100.00,NW,306,9.0,22.0,24,0.00,,,0.01,,2013-08-10 21:22:00,
2013-08-10 15:52:00,61.0,30.0,-100.00,NNW,327,10.0,36.0,31,0.00,,,0.01,,2013-08-10 21:52:00,
2013-08-10 16:01:00,61.0,30.0,-100.00,NNW,327,10.0,36.0,31,0.00,,,0.01,,2013-08-10 22:01:00,
2013-08-10 16:11:00,61.0,30.0,-100.00,NNW,327,10.0,36.0,31,0.00,,,0.01,,2013-08-10 22:11:00,
2013-08-10 16:21:00,61.0,30.0,-100.00,NNW,327,10.0,36.0,31,0.00,,,0.01,,2013-08-10 22:21:00,
2013-08-10 16:52:00,64.0,30.0,-100.00,WNW,285,12.0,18.0,28,0.00,,,0.00,,2013-08-10 22:52:00,
2013-08-10 17:01:00,64.0,30.0,-100.00,WNW,285,12.0,18.0,28,0.00,,,0.00,,2013-08-10 23:01:00,
2013-08-10 17:12:00,64.0,30.0,-100.00,WNW,285,12.0,18.0,28,0.00,,,0.00,,2013-08-10 23:12:00,
2013-08-10 17:22:00,64.0,30.0,-100.00,WNW,285,12.0,18.0,28,0.00,,,0.00,,2013-08-10 23:22:00,
2013-08-10 17:53:00,59.0,30.0,-100.00,WNW,289,13.0,22.0,33,0.00,,,0.00,,2013-08-10 23:53:00,
2013-08-10 18:02:00,59.0,30.0,-100.00,WNW,289,13.0,22.0,33,0.00,,,0.00,,2013-08-11 00:02:00,
2013-08-10 18:11:00,59.0,30.0,-100.00,WNW,289,13.0,22.0,33,0.00,,,0.00,,2013-08-11 00:11:00,
2013-08-10 18:22:00,59.0,30.0,-100.00,WNW,289,13.0,22.0,33,0.00,,,0.00,,2013-08-11 00:22:00,
2013-08-10 18:52:00,57.0,31.0,-100.00,WNW,295,10.0,24.0,37,0.00,,,0.00,,2013-08-11 00:52:00,
2013-08-10 19:01:00,57.0,31.0,-100.00,WNW,295,10.0,24.0,37,0.00,,,0.00,,2013-08-11 01:01:00,
2013-08-10 19:11:00,57.0,31.0,-100.00,WNW,295,10.0,24.0,37,0.00,,,0.00,,2013-08-11 01:11:00,
2013-08-10 19:22:00,57.0,31.0,-100.00,WNW,295,10.0,24.0,37,0.00,,,0.00,,2013-08-11 01:22:00,
2013-08-10 19:54:00,55.0,31.0,-100.00,NW,322,2.0,14.0,39,0.00,,,0.00,,2013-08-11 01:54:00,
2013-08-10 20:02:00,55.0,31.0,-100.00,NW,322,2.0,14.0,39,0.00,,,0.00,,2013-08-11 02:02:00,
2013-08-10 20:11:00,55.0,31.0,-100.00,NW,322,2.0,14.0,39,0.00,,,0.00,,2013-08-11 02:11:00,
2013-08-10 20:22:00,55.0,31.0,-100.00,NW,322,2.0,14.0,39,0.00,,,0.00,,2013-08-11 02:22:00,
2013-08-10 20:57:00,50.0,34.0,-100.00,NE,39,5.0,19.0,54,0.00,,,0.00,,2013-08-11 02:57:00,
2013-08-10 21:05:00,50.0,34.0,-100.00,NE,39,5.0,19.0,54,0.00,,,0.00,,2013-08-11 03:05:00,
2013-08-10 21:16:00,50.0,34.0,-100.00,NE,39,5.0,19.0,54,0.00,,,0.00,,2013-08-11 03:16:00,
2013-08-10 21:26:00,50.0,34.0,-100.00,NE,39,5.0,19.0,54,0.00,,,0.00,,2013-08-11 03:26:00,
2013-08-10 21:56:00,50.0,33.0,-100.00,West,265,4.0,8.0,52,0.00,,,0.00,,2013-08-11 03:56:00,
2013-08-10 22:01:00,50.0,33.0,-100.00,West,265,4.0,8.0,52,0.00,,,0.00,,2013-08-11 04:01:00,
2013-08-10 22:12:00,50.0,33.0,-100.00,West,265,4.0,8.0,52,0.00,,,0.00,,2013-08-11 04:12:00,
2013-08-10 22:22:00,50.0,33.0,-100.00,West,265,4.0,8.0,52,0.00,,,0.00,,2013-08-11 04:22:00,
2013-08-10 22:53:00,49.0,33.0,-100.00,ENE,64,3.0,7.0,53,0.00,,,0.00,,2013-08-11 04:53:00,
2013-08-10 23:02:00,49.0,33.0,-100.00,ENE,64,3.0,7.0,53,0.00,,,0.00,,2013-08-11 05:02:00,
2013-08-10 23:17:00,49.0,33.0,-100.00,ENE,64,3.0,7.0,53,0.00,,,0.00,,2013-08-11 05:17:00,